Tyler, TX

6:46 AM CDT on March 23, 2017 (GMT -0500)
Tyler Pounds

Weather History for KTYR - January, 2013

Change the Weather History Date:

Wednesday, January 30, 2013

  Actual Average Record
Temperature  
Mean Temperature 45 °F 47 °F  
Max Temperature 56 °F 57 °F 82 °F (1917)
Min Temperature 33 °F 37 °F 9 °F (1966)
Degree Days  
Heating Degree Days 20 18  
Month to date heating degree days 461 563  
Since 1 July heating degree days 1197 1464  
Cooling Degree Days 0 0  
Month to date cooling degree days 10 0  
Year to date cooling degree days 10 0  
Moisture  
Dew Point 31 °F    
Average Humidity 55    
Maximum Humidity 77    
Minimum Humidity 32    
Precipitation  
Precipitation 0.01 in 0.09 in 2.44 in (1942)
Month to date precipitation 3.74 2.96  
Year to date precipitation 3.74 2.96  
Snow  
Snow 0.00 in - - ()
Month to date snowfall T  
Since 1 July snowfall 1.0  
Snow Depth 0.00 in    
Sea Level Pressure  
Sea Level Pressure 29.96 in    
Wind  
Wind Speed 12 mph (West)    
Max Wind Speed 30 mph    
Max Gust Speed 40 mph    
Visibility 10 miles    
Events Rain    
T = Trace of Precipitation, MM = Missing Value Source: NWS Daily Summary

Daily Weather History Graph

Daily Weather History Graph

Search for Another Location

Airport or City:

Trip Planner

Search our weather history database for the weather conditions in past years. The results will help you decide how hot, cold, wet, or windy it might be!

Date:

Astronomy

Jan. 30, 2013 Rise Set
Actual Time 7:16 AM CST 5:53 PM CST
Civil Twilight 6:51 AM CST 6:19 PM CST
Nautical Twilight 6:21 AM CST 6:48 PM CST
Astronomical Twilight 5:52 AM CST 7:17 PM CST
Moon 9:35 PM CST (1/30) 9:00 AM CST (1/30)
Length of Visible Light 11h 28m
Length of Day
10h 36m
Waning Gibbous, 87% of the Moon is Illuminated
Jan 30
Waning Gibbous
Feb 3
Last Quarter
Feb 10
New
Feb 17
First Quarter
Feb 25
Full

Hourly Weather History & Observations

Time (CST) Temp. Windchill Dew Point Humidity Pressure Visibility Wind Dir Wind Speed Gust Speed Precip Events Conditions
12:53 AM 55.0 °F - 48.0 °F 77% 29.73 in 10.0 mi WSW 9.2 mph - N/A   Overcast
1:53 AM 53.1 °F - 41.0 °F 64% 29.71 in 10.0 mi West 8.1 mph - N/A   Mostly Cloudy
2:53 AM 51.1 °F - 37.0 °F 59% 29.71 in 10.0 mi WSW 9.2 mph - N/A   Scattered Clouds
3:53 AM 50.0 °F - 33.1 °F 52% 29.72 in 10.0 mi West 9.2 mph - N/A   Clear
4:53 AM 48.9 °F - 32.0 °F 52% 29.73 in 10.0 mi SW 8.1 mph - N/A   Clear
5:53 AM 48.0 °F - 30.0 °F 50% 29.75 in 10.0 mi WSW 8.1 mph - N/A   Clear
7:53 AM 46.0 °F 39.6 °F 36.0 °F 68% 29.86 in 10.0 mi West 15.0 mph 19.6 mph N/A   Scattered Clouds
8:19 AM 46.4 °F 40.4 °F 35.6 °F 66% 29.88 in 10.0 mi West 13.8 mph 21.9 mph N/A   Overcast
8:26 AM 46.4 °F 41.9 °F 35.6 °F 66% 29.88 in 10.0 mi West 9.2 mph 20.7 mph N/A   Overcast
8:53 AM 46.0 °F 39.6 °F 35.1 °F 66% 29.89 in 10.0 mi West 15.0 mph 20.7 mph N/A   Scattered Clouds
9:53 AM 42.1 °F 31.5 °F 35.1 °F 76% 29.96 in 4.0 mi WNW 28.8 mph 40.3 mph 0.01 in Rain Light Rain
10:53 AM 45.0 °F 37.6 °F 33.1 °F 63% 29.99 in 10.0 mi NW 17.3 mph 32.2 mph 0.00 in   Overcast
11:53 AM 46.9 °F - 30.0 °F 52% 30.02 in 10.0 mi WNW 19.6 mph 36.8 mph N/A   Overcast
12:53 PM 48.9 °F - 28.0 °F 44% 30.03 in 10.0 mi NW 19.6 mph 28.8 mph N/A   Mostly Cloudy
1:53 PM 51.1 °F - 28.0 °F 41% 30.02 in 10.0 mi NW 21.9 mph 31.1 mph N/A   Mostly Cloudy
2:53 PM 52.0 °F - 27.0 °F 38% 30.04 in 10.0 mi NW 19.6 mph 25.3 mph N/A   Mostly Cloudy
3:53 PM 50.0 °F - 25.0 °F 38% 30.05 in 10.0 mi WNW 15.0 mph 20.7 mph N/A   Partly Cloudy
4:53 PM 51.1 °F - 23.0 °F 33% 30.06 in 10.0 mi WNW 13.8 mph 21.9 mph N/A   Clear
5:53 PM 48.9 °F - 21.0 °F 33% 30.10 in 10.0 mi NW 9.2 mph 19.6 mph N/A   Clear
6:53 PM 46.9 °F - 23.0 °F 39% 30.13 in 10.0 mi West 6.9 mph - N/A   Clear
7:53 PM 44.1 °F 42.5 °F 24.1 °F 45% 30.14 in 10.0 mi NW 3.5 mph - N/A   Clear
8:53 PM 43.0 °F 41.3 °F 25.0 °F 49% 30.16 in 10.0 mi WNW 3.5 mph - N/A   Clear
9:53 PM 42.1 °F 39.2 °F 25.0 °F 51% 30.17 in 10.0 mi West 4.6 mph - N/A   Clear
10:53 PM 39.9 °F 36.7 °F 27.0 °F 60% 30.17 in 10.0 mi SW 4.6 mph - N/A   Clear
11:53 PM 33.1 °F 30.0 °F 28.9 °F 85% 30.16 in 8.0 mi South 3.5 mph - N/A   Clear